Location: Foulognes
(49.1413°N, 0.8183°W)
Time: 16:09:25
(UTC+00:00)

Starlink (trailer) - Pass Details

Date: 21 October 2019
Orbit: 548 x 551 km, 53.0° (Epoch: 12 November)

Event Time Altitude Azimuth Distance (km) Brightness Sun altitude
Rises 18:34:59 0° 281° (W) 2,718 8.9 -15.8°
Reaches altitude 10° 18:37:16 10° 287° (WNW) 1,825 7.5 -16.2°
Maximum altitude 18:41:18 49° 3° (N) 720 4.1 -16.9°
Enters shadow 18:42:53 31° 59° (ENE) 978 4.4 -17.1°
